User: anonymous   Login
Location: Unspecified
(0.0000°N, 0.0000°E)
Time: 11:05:54
(UTC+00:00)
Language:

Courier 1B Rocket - Orbit

View from above orbital plane
View from above orbital plane
View from above satellite
View from above satellite

Ground track
Ground track

The orbit data is extracted from the following two-line orbital elements,

1 00059U 60013B   17023.48439357  .00000096  00000-0  10581-4 0  9994
2 00059  28.2494 112.6432 0189326 310.6440  47.7783 13.52947123778927
Epoch (UTC): 23 January 2017 11:37:31
Eccentricity: 0.0189326
inclination: 28.2494°
perigee height: 920 km
apogee height: 1202 km
right ascension of ascending node: 112.6432°
argument of perigee: 310.6440°
revolutions per day: 13.52947123
mean anomaly at epoch: 47.7783°
orbit number at epoch: 77892

The dashed part of the orbit path shows where the satellite is in the earth's shadow,  

DLR